Showing default

OPTICUBE 04, 41851

Orbit data source: Space-Track

OPTICUBE 04, 41851 is an American payload satellite in SSO that was launched on Fri, 11 Nov 2016 UTC via an ATLAS V 401 launch vehicle from the Air Force Western Test Range (AFWTR). Payload-class satellites include a variety of spacecraft equipped with specific instruments for various scientific and technological missions. These include communications satellites like Starlink; space stations such as the ISS; scientific satellites like the Hubble; Earth observation satellites from companies like Planet Labs, Umbra, and HawkEye 360; GPS; miniature CubeSats for education and research; and military/defense satellites.

Loading next visibility...
Identifier
41851, 2016-067D
Orbit
SSO
Country
Flag of USUS
Related business
Manufacturer
Cal Poly
Mission
Operational Defense Calibration
Bus & Motor
CUBESAT 2U, Unknown motor
Mass
4 kg wet, 4 kg dry
Launch date (UTC)
2016-11-11 (9 years ago)
Launch vehicle
ATLAS V 401
Launch site
Air Force Western Test Range (AFWTR)
Object type
Payload
Rocket body
Debris
Shape & HBR
Box, 0.1 m
Radar Cross Section
0.035 m², Small (<0.1 m²)

Expand to show TLE details & history
Last TLE update: 6 hours ago

TLE from 6 hours ago
0 OPTICUBE 04
1 41851U 16067D   26123.86654019  .00002642  00000-0  16913-3 0  9999
2 41851  98.0742 333.8327 0014296 267.4285  92.5306 15.09471826518480
Epoch: 2026-05-03T20:47Z
TLE epoch observation values (Epoch: 2026-05-03T20:47:49.072Z)
Latitude
-0.00001°
Longitude
160.11429°
Altitude
541.32 km
Speed
7.591 km/s
True Right ascension
22h 15m 19s
True Declination
0° 00' 00"
Sunlit
Object was in daylight at epoch
Visualization orbit readout
Latitude
Unknown
Longitude
Unknown
Altitude
Unknown
Speed
Unknown
Apparent Right ascension
Unknown
Apparent Declination
Unknown
Sunlit
N/A
Visualization observer readout
Local Sidereal Time
10:26:06
Azimuth
Unknown
Elevation
Unknown
Doppler factor
Unknown
Orbital elements
Apogee altitude
544.705 km
Perigee altitude
524.94 km
Semi-major axis
6,912.959 km
Eccentricity
0.00143
Inclination
98.0742°
RAAN
333.8327°
Arg. of periapsis
267.4285°
True anomaly
92.69425°
Mean anomaly
92.5306°
Eccentric anomaly
92.61242°
Mean motion
3.77613 °/min
Orbital period
95.34 mins
BSTAR
0.00016913
Loading maneuver chart data...
Computing Atmospheric mass density...
Loading historical data...
Loading historical data...
Loading historical data...
Loading historical data...
Loading historical data...
Loading historical data...
Loading historical data...

Documentation

Showing up to 5 results
|